EW6162 Weather Reports


time (UTC)temp
C
wind
direction
speed
KPH
gust
KPH
rain 1hr
cm
rain 24hr
cm
rain mn
cm
humidity
%
barometer
mb
20260509022021 10 315 1.6 1.6 0.00 0.03 0.03 58 1011.5
20260509021021 10 315 1.6 3.2 0.00 0.03 0.03 62 1011.4
20260509020021 11 315 1.6 3.2 0.00 0.03 0.03 66 1011.3
20260509015020 11 0.0 1.6 0.00 0.03 0.03 67 1011.1
20260509014020 11 0.0 0.0 0.00 0.03 0.03 69 1011.1
20260509013041 12 0.0 0.0 0.00 0.03 0.03 70 1011.2
20260509012020 12 0.0 1.6 0.00 0.03 0.03 70 1011.0
20260509011041 13 315 1.6 1.6 0.00 0.03 0.03 70 1011.1
20260509010021 13 0.0 1.6 0.00 0.03 0.03 68 1011.0
20260509005020 15 315 1.6 1.6 0.00 0.03 0.03 66 1011.1
20260509004021 16 0.0 1.6 0.00 0.03 0.03 63 1011.1
20260509003140 17 0.0 0.0 0.00 0.03 0.03 57 1011.0
20260509002020 18 0.0 0.0 0.00 0.03 0.03 53 1011.1
20260509001100 20 0.0 1.6 0.00 0.03 0.03 46 1011.1
20260509000020 20 0.0 1.6 0.00 0.03 0.03 44 1011.3
20260508235022 20 270 3.2 6.4 0.00 0.03 0.03 42 1011.1
20260508234020 20 270 3.2 4.8 0.00 0.03 0.03 43 1011.1
20260508233020 20 270 4.8 9.7 0.00 0.03 0.03 41 1011.0
20260508232020 20 270 8.0 14.5 0.00 0.03 0.03 42 1011.0
20260508231020 20 270 9.7 16.1 0.00 0.03 0.03 40 1011.1
20260508230021 21 270 4.8 11.3 0.00 0.03 0.03 42 1011.2
20260508225020 21 270 6.4 12.9 0.00 0.03 0.03 41 1011.3
20260508224020 21 270 4.8 9.7 0.00 0.03 0.03 44 1011.4
20260508223020 20 270 9.7 16.1 0.00 0.03 0.03 40 1011.4
20260508222020 21 293 6.4 12.9 0.00 0.03 0.03 40 1011.5
20260508221040 21 248 4.8 9.7 0.00 0.03 0.03 41 1011.5
20260508220020 20 270 6.4 14.5 0.00 0.03 0.03 41 1011.6
20260508215020 20 270 8.0 16.1 0.00 0.03 0.03 39 1011.6
20260508214020 21 203 6.4 16.1 0.00 0.03 0.03 38 1011.7
20260508213020 21 270 4.8 12.9 0.00 0.03 0.03 39 1011.4
20260508212040 21 315 6.4 16.1 0.00 0.03 0.03 37 1011.4
20260508211020 21 203 6.4 19.3 0.00 0.03 0.03 36 1011.4
20260508210040 20 315 8.0 14.5 0.00 0.03 0.03 35 1011.4
20260508205020 21 315 4.8 14.5 0.00 0.03 0.03 39 1011.6
20260508204100 21 293 8.0 16.1 0.00 0.03 0.03 35 1011.8
20260508203020 20 270 6.4 16.1 0.00 0.03 0.03 37 1011.8
20260508202020 20 270 11.3 16.1 0.00 0.03 0.03 35 1011.9
20260508201020 21 225 4.8 12.9 0.00 0.03 0.03 33 1012.1
20260508200019 20 180 4.8 12.9 0.00 0.03 0.03 34 1012.6
20260508195020 20 203 6.4 14.5 0.00 0.03 0.03 36 1013.0
20260508194020 20 203 9.7 17.7 0.00 0.03 0.03 34 1013.2
20260508193020 21 180 4.8 11.3 0.00 0.03 0.03 35 1013.4
20260508192020 21 90 3.2 6.4 0.00 0.03 0.03 32 1013.5
20260508191020 21 0 3.2 6.4 0.00 0.03 0.03 30 1013.5
20260508190040 20 68 3.2 12.9 0.00 0.03 0.03 31 1013.7
20260508185020 20 248 3.2 6.4 0.00 0.03 0.03 31 1013.9
20260508184020 20 180 3.2 9.7 0.00 0.03 0.03 32 1014.1
20260508183019 19 135 4.8 11.3 0.00 0.03 0.03 29 1014.1
20260508182040 19 180 6.4 11.3 0.00 0.03 0.03 29 1014.2
20260508181020 20 135 6.4 14.5 0.00 0.03 0.03 35 1014.2
20260508180020 19 248 3.2 6.4 0.00 0.03 0.03 38 1014.4
20260508175040 18 293 4.8 6.4 0.00 0.03 0.03 37 1014.4
20260508174020 18 113 3.2 9.7 0.00 0.03 0.03 38 1014.6
20260508173019 18 113 4.8 11.3 0.00 0.03 0.03 34 1014.8
20260508172019 18 90 4.8 16.1 0.00 0.03 0.03 45 1015.1
20260508171020 18 293 3.2 8.0 0.00 0.03 0.03 43 1015.3
20260508170040 17 293 6.4 11.3 0.00 0.03 0.03 50 1015.5
20260508165019 17 158 1.6 6.4 0.00 0.03 0.03 46 1015.7
20260508164020 18 45 6.4 14.5 0.00 0.03 0.03 51 1016.0
20260508163039 17 68 4.8 11.3 0.00 0.03 0.03 49 1016.1
20260508162020 17 248 3.2 8.0 0.00 0.03 0.03 54 1016.2
20260508161039 16 203 3.2 6.4 0.00 0.03 0.03 50 1016.3
20260508160020 16 180 4.8 6.4 0.00 0.03 0.03 46 1016.5
20260508155019 16 113 4.8 12.9 0.00 0.03 0.03 51 1016.7
20260508154019 15 293 4.8 8.0 0.00 0.03 0.03 55 1016.8
20260508153019 15 225 3.2 6.4 0.00 0.03 0.03 52 1016.9
20260508152019 14 203 3.2 6.4 0.00 0.05 0.03 59 1017.0
20260508151019 13 158 3.2 6.4 0.00 0.05 0.03 65 1017.1
20260508150019 12 225 1.6 8.0 0.00 0.10 0.03 33 1016.8
20260508145019 11 158 3.2 8.0 0.00 0.10 0.03 2 1016.9
20260508144020 11 203 3.2 6.4 0.00 0.10 0.03 1 1016.9
20260508143019 10 225 3.2 6.4 0.00 0.10 0.03 1 1016.9
20260508142019 10 225 3.2 6.4 0.00 0.10 0.03 1 1017.0
20260508141019 10 135 1.6 4.8 0.00 0.13 0.03 1 1016.9
20260508140019 9 135 3.2 4.8 0.00 0.13 0.03 1 1017.0
20260508135020 8 135 3.2 6.4 0.00 0.13 0.03 2 1017.0
20260508134019 8 113 1.6 3.2 0.00 0.13 0.03 2 1017.0
20260508133019 7 113 1.6 4.8 0.00 0.13 0.03 3 1017.0
20260508132019 7 45 1.6 4.8 0.00 0.13 0.03 4 1017.0
20260508131019 7 45 3.2 6.4 0.00 0.13 0.03 4 1016.8
20260508130019 6 45 1.6 4.8 0.00 0.13 0.03 5 1016.7
20260508125019 6 90 1.6 3.2 0.00 0.13 0.03 6 1016.8
20260508124019 6 90 1.6 3.2 0.00 0.13 0.03 6 1016.9
20260508123039 5 90 1.6 4.8 0.00 0.13 0.03 7 1016.9
20260508122021 5 0 1.6 4.8 0.00 0.13 0.03 7 1016.8
20260508121019 5 113 3.2 6.4 0.00 0.13 0.03 8 1016.5
20260508120019 5 0.0 3.2 0.03 0.13 0.03 9 1016.5
20260508115021 4 0.0 1.6 0.03 0.13 0.03 10 1016.3
20260508114021 3 0.0 3.2 0.03 0.13 0.03 11 1016.2
20260508113021 3 0.0 1.6 0.03 0.13 0.03 11 1016.0
20260508112021 3 0.0 1.6 0.03 0.13 0.03 12 1015.8
20260508111019 3 0.0 0.0 0.03 0.13 0.03 14 1015.6
20260508110039 3 0.0 0.0 0.00 0.10 0.00 15 1015.5
20260508105041 3 0.0 1.6 0.00 0.10 0.00 16 1015.4
20260508104021 3 0.0 0.0 0.00 0.10 0.00 15 1015.2
20260508103021 3 0.0 1.6 0.00 0.10 0.00 14 1015.2
20260508102021 3 0.0 0.0 0.00 0.10 0.00 13 1015.1
20260508101021 3 0.0 0.0 0.00 0.10 0.00 13 1014.8
20260508100021 3 0.0 0.0 0.00 0.10 0.00 13 1014.9
20260508095021 3 0.0 0.0 0.00 0.13 0.00 13 1014.8
20260508094020 3 0.0 0.0 0.00 0.13 0.00 15 1014.7
20260508093019 3 0.0 0.0 0.00 0.13 0.00 16 1014.6
20260508092020 3 0.0 0.0 0.00 0.13 0.00 17 1014.6
20260508091021 3 0.0 0.0 0.00 0.13 0.00 17 1014.7
20260508090019 3 0.0 0.0 0.00 0.13 0.00 16 1014.5
20260508085021 4 0.0 0.0 0.00 0.13 0.00 15 1014.6
20260508084020 4 0.0 0.0 0.00 0.13 0.00 13 1014.4
20260508083020 4 0.0 0.0 0.00 0.15 0.00 12 1014.4
20260508082021 4 0.0 0.0 0.00 0.15 0.00 16 1014.5
20260508081021 5 0.0 0.0 0.00 0.15 0.00 17 1014.5
20260508080040 5 0.0 0.0 0.00 0.18 0.00 14 1014.4
20260508075020 5 225 1.6 1.6 0.00 0.18 0.00 13 1014.4
20260508074021 5 225 1.6 1.6 0.00 0.18 0.00 12 1014.4
20260508073020 5 0.0 0.0 0.00 0.18 0.00 16 1014.4
20260508072020 6 0.0 0.0 0.00 0.18 0.00 13 1014.5
20260508071020 6 0.0 0.0 0.00 0.18 0.00 12 1014.4
20260508070020 6 0.0 0.0 0.00 0.18 0.00 12 1014.4
20260508065020 6 0.0 0.0 0.00 0.18 0.00 10 1014.3
20260508064020 6 0.0 0.0 0.00 0.18 0.00 10 1014.3
20260508063020 7 225 1.6 3.2 0.00 0.18 0.00 7 1014.3
20260508062020 6 158 3.2 6.4 0.00 0.18 0.00 8 1014.4
20260508061020 6 0.0 1.6 0.00 0.18 0.00 11 1014.3
20260508060020 6 0.0 1.6 0.00 0.18 0.00 10 1014.2
20260508055020 6 158 1.6 3.2 0.00 0.20 0.00 10 1014.2
20260508054020 5 158 1.6 8.0 0.00 0.20 0.00 13 1014.3
20260508053020 5 0.0 3.2 0.00 0.20 0.00 18 1014.2
20260508052019 5 158 1.6 3.2 0.00 0.20 0.00 20 1014.1
20260508051019 6 0.0 3.2 0.00 0.20 0.00 17 1014.2
20260508050019 6 158 1.6 3.2 0.00 0.20 0.00 20 1014.1
20260508045019 6 158 1.6 1.6 0.00 0.20 0.00 18 1013.9
20260508044019 6 0.0 1.6 0.00 0.20 0.00 17 1013.8
20260508043019 7 0.0 1.6 0.00 0.20 0.00 17 1013.8
20260508042019 7 158 1.6 3.2 0.00 0.20 0.00 16 1013.7
20260508041019 7 158 1.6 3.2 0.00 0.20 0.00 17 1013.6
20260508040021 7 0.0 0.0 0.00 0.20 0.00 21 1013.5
20260508035020 7 0.0 1.6 0.00 0.20 0.20 19 1013.4
20260508034020 7 0.0 0.0 0.00 0.20 0.20 18 1013.5
20260508033020 8 0.0 1.6 0.00 0.20 0.20 13 1013.3
20260508032020 7 0.0 3.2 0.00 0.20 0.20 19 1013.4
20260508031020 8 0.0 1.6 0.00 0.20 0.20 18 1013.5
20260508030041 8 158 1.6 3.2 0.00 0.23 0.20 19 1013.4
20260508025020 8 0.0 1.6 0.00 0.23 0.20 24 1013.3
20260508024020 8 0.0 1.6 0.00 0.23 0.20 28 1013.2
20260508023020 8 0.0 1.6 0.00 0.23 0.20 27 1013.0